Weather History for Golden Triangle, MS

Change the Weather History Date:

Saturday, November 3, 2012

  Actual Average Record
Temperature  
Mean Temperature 68 °F -  
Max Temperature 84 °F 68 °F 84 °F (2000)
Min Temperature 51 °F 45 °F 19 °F (1998)
Cooling Degree Days 2    
Growing Degree Days 18 (Base 50)    
Moisture  
Dew Point 52 °F    
Average Humidity 70    
Maximum Humidity 88    
Minimum Humidity 35    
Precipitation  
Precipitation 0.00 in - - ()
Sea Level Pressure  
Sea Level Pressure 30.03 in    
Wind  
Wind Speed 2 mph (SW)    
Max Wind Speed 14 mph    
Max Gust Speed 17 mph    
Visibility 9 miles    
Events      
Averages and records for this station are not official NWS values.
T = Trace of Precipitation, MM = Missing Value Source: NWS Daily Summary

Daily Weather History Graph

Daily Weather History Graph

Search for Another Location

Airport:

Trip Planner

Search our weather history database for the weather conditions in past years. The results will help you decide how hot, cold, wet, or windy it might be!

Date:

Astronomy

Nov. 03, 2012 Rise Set
Actual Time 7:15 AM CDT 6:00 PM CDT
Civil Twilight 6:49 AM CDT 6:25 PM CDT
Nautical Twilight 6:19 AM CDT 6:55 PM CDT
Astronomical Twilight 5:50 AM CDT 7:24 PM CDT
Moon 9:45 PM CDT (11/3) 11:14 AM CDT (11/3)
Length of Visible Light 11h 36m
Length of Day
10h 44m
Waning Gibbous, 80% of the Moon is Illuminated
Nov 3
Waning Gibbous
Nov 6
Last Quarter
Nov 13
New
Nov 20
First Quarter
Nov 28
Full

Hourly Weather History & Observations

Time (CDT) Temp. Heat Index Dew Point Humidity Pressure Visibility Wind Dir Wind Speed Gust Speed Precip Events Conditions
12:35 AM 55.4 °F - 51.8 °F 88% 30.02 in 10.0 mi Calm Calm - N/A   Clear
12:55 AM 53.6 °F - 48.2 °F 82% 30.02 in 10.0 mi Calm Calm - N/A   Clear
1:15 AM 55.4 °F - 50.0 °F 82% 30.02 in 10.0 mi Calm Calm - N/A   Clear
1:35 AM 55.4 °F - 51.8 °F 88% 30.02 in 8.0 mi SW 3.5 mph - N/A   Clear
1:55 AM 55.4 °F - 51.8 °F 88% 30.02 in 10.0 mi Calm Calm - N/A   Clear
2:15 AM 55.4 °F - 50.0 °F 82% 30.02 in 10.0 mi Calm Calm - N/A   Clear
2:35 AM 53.6 °F - 50.0 °F 88% 30.02 in 10.0 mi Calm Calm - N/A   Clear
2:55 AM 53.6 °F - 48.2 °F 82% 30.02 in 7.0 mi SSW 3.5 mph - N/A   Clear
3:15 AM 53.6 °F - 50.0 °F 88% 30.02 in 10.0 mi Calm Calm - N/A   Clear
3:35 AM 53.6 °F - 50.0 °F 88% 30.02 in 5.0 mi South 3.5 mph - N/A   Clear
3:55 AM 53.6 °F - 48.2 °F 82% 30.02 in 5.0 mi South 3.5 mph - N/A   Clear
4:15 AM 53.6 °F - 50.0 °F 88% 30.02 in 7.0 mi Calm Calm - N/A   Clear
4:35 AM 53.6 °F - 50.0 °F 88% 30.03 in 7.0 mi Calm Calm - N/A   Clear
4:56 AM 53.6 °F - 50.0 °F 88% 30.03 in 8.0 mi Calm Calm - N/A   Clear
5:15 AM 53.6 °F - 48.2 °F 82% 30.04 in 7.0 mi East 3.5 mph - N/A   Clear
5:35 AM 53.6 °F - 50.0 °F 88% 30.04 in 5.0 mi Calm Calm - N/A   Clear
5:55 AM 51.8 °F - 48.2 °F 88% 30.05 in 5.0 mi Calm Calm - N/A   Clear
6:50 AM 51.8 °F - 48.2 °F 88% 30.06 in 5.0 mi Calm Calm - N/A   Clear
7:50 AM 53.6 °F - 50.0 °F 88% 30.08 in 5.0 mi Calm Calm - N/A   Clear
8:50 AM 60.8 °F - 57.2 °F 88% 30.10 in 6.0 mi Calm Calm - N/A   Clear
9:50 AM 66.2 °F - 57.2 °F 73% 30.11 in 10.0 mi West 4.6 mph - N/A   Clear
10:50 AM 75.2 °F - 60.8 °F 61% 30.09 in 10.0 mi West 6.9 mph - N/A   Clear
11:50 AM 78.8 °F - 59.0 °F 51% 30.08 in 10.0 mi West 9.2 mph - N/A   Clear
12:45 PM 82.4 °F 82.0 °F 57.2 °F 42% 30.06 in 10.0 mi West 11.5 mph - N/A   Clear
1:45 PM 84.2 °F 82.8 °F 53.6 °F 35% 30.04 in 10.0 mi West 11.5 mph 17.3 mph N/A   Clear
2:45 PM 82.4 °F - 51.8 °F 35% 30.02 in 10.0 mi WSW 11.5 mph 16.1 mph N/A   Clear
3:45 PM 82.4 °F - 51.8 °F 35% 30.01 in 10.0 mi WSW 13.8 mph - N/A   Clear
4:45 PM 82.4 °F - 51.8 °F 35% 30.00 in 10.0 mi WSW 6.9 mph 16.1 mph N/A   Clear
5:55 PM 78.8 °F - 51.8 °F 39% 29.99 in 10.0 mi SW 8.1 mph - N/A   Clear
6:45 PM 71.6 °F - 51.8 °F 50% 29.99 in 10.0 mi SW 4.6 mph - N/A   Clear
7:50 PM 71.6 °F - 51.8 °F 50% 30.00 in 10.0 mi SSW 5.8 mph - N/A   Clear
7:55 PM 69.8 °F - 51.8 °F 53% 30.00 in 10.0 mi SW 5.8 mph - N/A   Clear
8:15 PM 69.8 °F - 51.8 °F 53% 30.01 in 10.0 mi SSW 4.6 mph - N/A   Clear
8:35 PM 66.2 °F - 51.8 °F 60% 30.02 in 10.0 mi SW 3.5 mph - N/A   Clear
8:55 PM 66.2 °F - 51.8 °F 60% 30.02 in 10.0 mi SW 3.5 mph - N/A   Clear
9:15 PM 64.4 °F - 51.8 °F 64% 30.03 in 10.0 mi SW 3.5 mph - N/A   Clear
9:35 PM 60.8 °F - 51.8 °F 72% 30.03 in 10.0 mi SW 3.5 mph - N/A   Clear
9:55 PM 64.4 °F - 51.8 °F 64% 30.04 in 10.0 mi Calm Calm - N/A   Clear
10:15 PM 64.4 °F - 51.8 °F 64% 30.04 in 10.0 mi Calm Calm - N/A   Clear
10:35 PM 62.6 °F - 51.8 °F 68% 30.05 in 10.0 mi SW 3.5 mph - N/A   Partly Cloudy
10:55 PM 62.6 °F - 53.6 °F 72% 30.05 in 10.0 mi WSW 3.5 mph - N/A   Mostly Cloudy
11:35 PM 64.4 °F - 53.6 °F 68% 30.06 in 10.0 mi WNW 3.5 mph - N/A   Mostly Cloudy
11:55 PM 62.6 °F - 53.6 °F 72% 30.06 in 10.0 mi Calm Calm - N/A   Mostly Cloudy